Orbital Elements at Epoch 2459200.5 (2020-Dec-17.0) TDB
Reference: JPL 75 (heliocentric ecliptic J2000)
Element | Value | Uncertainty (1-sigma) | Units |
e | .6042201503455095 | 1.0697e-07 | |
a | .9441675325577659 | 3.0169e-09 | au |
q | .3736824840843639 | 1.0022e-07 | au |
i | 20.66734122914305 | 1.2721e-05 | deg |
node | 22.09878382042288 | 1.4312e-05 | deg |
peri | 339.9737939457504 | 1.8493e-05 | deg |
M | 32.14677255542787 | 2.7885e-05 | deg |
tp | 2459170.576878446014 (2020-Nov-17.07687845) | 2.5892e-05 | TDB |
period | 335.098142149765 0.92 | 1.6061e-06 4.397e-09 | d yr |
n | 1.074312133425991 | 5.1491e-09 | deg/d |
Q | 1.514652581031168 | 4.8398e-09 | au |
|
| | Orbit Determination Parameters
Additional Information
|